SS3 DEB (55738 NORAD) Tracking and Keplerian Element Data

This shows tracking and keplerian element data for the satellite.

Feedback or suggestion? Click here.




ElementValue
Catalog55738
NameSS3 DEB
Epoch Orbit292
Epoch Day62.12294773
Epoch Year2023
RAAN340.0103
Inclination37.1899
Eccentricity0.0040007
Argument of Perigee179.9437
Mean Anonmoly180.1339
Mean Motion15.63208805
Decay Rate0.00524338
L11 55738U 23019J 23062.12294773 .00524338 00000+0 50146-2 0 9993
L22 55738 37.1899 340.0103 0040007 179.9437 180.1339 15.63208805 2925



Live tracking and technical data element details for SS3 DEB (NORAD 55738). SS3 DEB can be tracked NOW for your location showing map with azimuth and elevation plus other details from your city location.







IsCatalogInMostPopularTable: catalog: 55738, numindb: 6
Update: records affected: 1



GetName: 55738 SS3 DEB

Hit Count: updated at: Wed, 22 Mar 2023 16:21:27 GMT